Location: Grand Lay
(47.3253°N, 0.9468°E)
Time: 06:00:46
(UTC+00:00)

SL-12 R/B(2) - Pass Details

Date: 18 January 2026
Orbit: 1171 x 2178 km, 63.4° (Epoch: 17 February)

Event Time Altitude Azimuth Distance (km) Brightness Sun altitude
Rises 05:31:42 0° 215° (SW) 4,164 6.5 -20.7°
Reaches altitude 10° 05:34:16 10° 215° (SW) 3,272 6.0 -20.3°
Maximum altitude 05:42:11 86° 128° (SE) 1,457 4.3 -19.0°
Drops below altitude 10° 05:51:58 10° 41° (NE) 3,986 7.0 -17.4°
Sets 05:55:25 0° 41° (NE) 5,122 7.6 -16.8°
